Regional Weather Roundup
Issued by NWS Kansas City/Pleasant Hill, MO

Home | Current Version | Previous Version | Text Only | Print | Product List | Glossary On
Versions: 1 2 3 4 5 6 7 8 9 10 11 12 13 14 15 16 17 18 19 20 21 22 23 24 25 26 27
000
ASUS43 KEAX 250810
RWREAX

WEATHER ROUNDUP FOR EASTERN KANSAS AND NORTHWEST MISSOURI
NATIONAL WEATHER SERVICE KANSAS CITY/PLEASANT HILL MO
300 AM CDT SUN JUN 25 2017

KSZ040-057-103>105-MOZ028-029-037-043-250900-
...KANSAS CITY METROPOLITAN AREA...

CITY           SKY/WX    TMP DP  RH WIND       PRES   REMARKS
K.C. INTL      CLOUDY    61  50  67 SW7       30.21S
K.C. DOWNTOWN  CLOUDY    69  50  50 W6        30.20S
LEES SUMMIT    CLOUDY    67  51  56 SW7       30.22S
OLATHE - IXD   CLOUDY    68  50  52 SW10      30.23S
OLATHE - OJC   CLOUDY    67  51  56 SW5       30.23S
LAWRENCE       MOCLDY    63  55  75 NW3       30.22S

$$

MOZ001>008-011>017-020>025-030>033-038>040-044>046-053-054-250900-
...NORTHERN AND CENTRAL MISSOURI...

CITY           SKY/WX    TMP DP  RH WIND       PRES   REMARKS
ST. JOSEPH     PTCLDY    57  49  74 CALM      30.21R
MOSBY          PTSUNNY   57  55  94 CALM      30.21R
WARRENSBURG    CLOUDY    63  50  63 SW7       30.21S
WHITEMAN AFB   CLOUDY    65  49  56 SW9       30.19F
CLINTON        PTCLDY    61  54  77 SW3       30.23R
SEDALIA        MOCLDY    63  53  70 SW9       30.21S
WARSAW         NOT AVBL
CHILLICOTHE      N/A     57  50  77 CALM      30.20R
KIRKSVILLE     CLEAR     53  49  86 NW3       30.18R

$$

MOZ041-047>049-056>058-063>065-088>090-097-250900-
...EASTERN AND SOUTHERN MISSOURI...

CITY           SKY/WX    TMP DP  RH WIND       PRES   REMARKS
ST. LOUIS INTL PTCLDY    65  47  52 SW8       30.16S
SPIRIT OF STL  CLEAR     55  52  89 W3        30.16S
COLUMBIA       CLEAR     58  50  75 SW8       30.19S
JEFFERSON CITY PTCLDY    61  51  70 CALM      30.19S
ROLLA          PTCLDY    54  49  83 SW9       30.20S
OSAGE BEACH    CLEAR     54  52  93 CALM      30.23R
SPRINGFIELD    CLOUDY    61  56  83 S3        30.24S
BRANSON        CLOUDY    59  54  82 CALM      30.26S
JOPLIN         CLOUDY    64  61  90 CALM      30.25S
WEST PLAINS    CLOUDY    57  53  86 CALM      30.24F

$$

IAZ060-094-KSZ022-034>040-054-083-096-NEZ052-066-093-250900-
...KANSAS...SOUTHEAST NEBRASKA AND IOWA...

CITY           SKY/WX    TMP DP  RH WIND       PRES   REMARKS
TOPEKA         CLOUDY    67  50  54 W7        30.23R
MANHATTAN      CLOUDY    65  55  70 SW7       30.26R
EMPORIA        CLOUDY    65  53  65 S8        30.26F
CHANUTE        CLOUDY    63  54  72 W3        30.25S
WICHITA        MOCLDY    67  54  63 E5        30.26R
OMAHA          CLEAR     55  44  66 N5        30.24R
LINCOLN        PTCLDY    52  45  77 N6        30.27R
FALLS CITY     CLEAR     54  48  80 NW7       30.21R
LAMONI         PTCLDY    55  44  66 N6        30.20R
DES MOINES     PTCLDY    54  46  74 W5        30.17S

$$





USA.gov is the U.S. government's official web portal to all federal, state and local government web resources and services.